This demonstration page uses our WeatherBlox Daily Observations layout. Learn more.

Hourly Observations for October 8, 2017

Temp ( °F °C ) Dew Point ( °F °C ) Humidity (%) Winds ( mph kmh ) Pressure ( in mb ) Visibility ( mi km ) Precip ( " mm )
12:54 am 00:54 Clear 55 12.8 49 9.4 80 80 SE 6 9 29.65 1004 10 16.09344 0 0
1:54 am 01:54 Clear 53 11.7 48 8.9 83 83 Calm 29.65 1004 10 16.09344 0 0
2:54 am 02:54 Clear 50 10 46 7.8 86 86 SSE 7 11 29.62 1003 10 16.09344 0 0
3:54 am 03:54 Clear 51 10.6 47 8.3 86 86 SSE 5 7 29.62 1003 10 16.09344 0 0
4:54 am 04:54 Clear 50 10 47 8.3 89 89 SSE 8 13 29.62 1003 10 16.09344 0 0
5:54 am 05:54 Clear 50 10 46 7.8 86 86 SSE 7 11 29.62 1003 10 16.09344 0 0
6:54 am 06:54 Clear 51 10.6 46 7.8 83 83 SSE 3 6 29.62 1003 10 16.09344 0 0
7:54 am 07:54 Sunny 52 11.1 48 8.9 86 86 SSE 6 9 29.62 1003 10 16.09344 0 0
8:54 am 08:54 Sunny 56 13.3 50 10 81 81 N 6 9 29.65 1004 10 16.09344 0 0
9:54 am 09:54 Sunny 62 16.7 50 10 65 65 SW 9 15 29.65 1004 10 16.09344 0 0
10:54 am 10:54 Sunny 65 18.3 49 9.4 56 56 W 6 9 29.65 1004 10 16.09344 0 0
11:54 am 11:54 Sunny 70 21.1 50 10 49 49 SW 5 7 29.65 1004 10 16.09344 0 0
12:54 pm 12:54 Sunny 73 22.8 51 10.6 46 46 WSW 8 13 29.65 1004 10 16.09344 0 0
1:54 pm 13:54 Sunny 75 23.9 51 10.6 43 43 W 6 9 29.62 1003 10 16.09344 0 0
2:54 pm 14:54 Sunny 77 25 50 10 39 39 N 5 7 29.59 1002 10 16.09344 0 0
3:54 pm 15:54 Sunny 78 25.6 49 9.4 36 36 Calm 29.59 1002 10 16.09344 0 0
4:54 pm 16:54 Sunny 77 25 51 10.6 40 40 NE 5 7 29.59 1002 10 16.09344 0 0
5:54 pm 17:54 Sunny 76 24.4 52 11.1 43 43 NNE 7 11 29.59 1002 10 16.09344 0 0
6:54 pm 18:54 Sunny 66 18.9 53 11.7 63 63 NNE 8 13 29.62 1003 10 16.09344 0 0
7:54 pm 19:54 Clear 64 17.8 52 11.1 65 65 N 12 19 29.65 1004 10 16.09344 0 0
8:54 pm 20:54 Clear 60 15.6 51 10.6 72 72 N 7 11 29.68 1005 10 16.09344 0 0
9:54 pm 21:54 Clear 59 15 51 10.6 75 75 N 9 15 29.71 1006 10 16.09344 0 0
10:54 pm 22:54 Clear 58 14.4 49 9.4 72 72 N 12 19 29.74 1007 10 16.09344 0 0
11:54 pm 23:54 Clear 59 15 46 7.8 62 62 NNE 17 28 29.77 1008 10 16.09344 0 0

Powered by AerisWeather